Location: Puketoi
(40.5833°S, 176.0167°E)
Time: 00:16:50
(UTC+00:00)

COSMOS 2455 - Pass Details

Date: 02 October 2023
Orbit: 902 x 907 km, 67.1° (Epoch: 03 December)

Event Time Altitude Azimuth Distance (km) Brightness Sun altitude
Exits shadow 11:17:11 17° 178° (S) 2,153 5.2 -44.5°
Drops below altitude 10° 11:18:45 10° 168° (SSE) 2,616 5.7 -44.6°
Sets 11:21:36 0° 157° (SSE) 3,562 6.5 -44.7°
